Simultaneous Nadir Overpasses (SNOs) Predictions

Prediction of SNOs between NPP and TERRA Satellite Orbit:

Table of predicted SNOs for the next 14.0 days since TLE Epoch: 5/10/2025
Index Date (NPP) Time (NPP) Lat,Lon (NPP) SZA (NPP ) Date (TERRA) Time (TERRA) Lat,Lon (TERRA) SZA (TERRA ) Distance(km) Time Diff (sec)
1 05/11/2025 19:09:59 73.80,-117.75 55.86 05/11/2025 19:10:27 73.76,-117.75 55.82 3.79 28
2 05/11/2025 20:00:42 -73.73, 49.72 124.23 05/11/2025 19:59:49 -73.71, 49.81 124.24 3.18 53
3 05/14/2025 05:31:41 -73.82, -93.23 124.72 05/14/2025 05:32:18 -73.78, -93.22 124.76 3.78 37
4 05/14/2025 06:22:24 73.69, 74.38 55.14 05/14/2025 06:21:37 73.70, 74.28 55.16 3.33 47
5 05/16/2025 15:53:24 73.79, -68.59 54.69 05/16/2025 15:54:06 73.79, -68.70 54.68 3.49 42
6 05/16/2025 16:44:08 -73.77, 98.79 125.35 05/16/2025 16:43:28 -73.76, 98.88 125.36 2.99 40
7 05/19/2025 02:15:07 -73.82, -44.06 125.82 05/19/2025 02:15:57 -73.83, -44.13 125.82 2.76 50
8 05/19/2025 03:05:51 73.75, 123.41 54.10 05/19/2025 03:05:16 73.74, 123.34 54.10 2.55 35
9 05/21/2025 12:36:51 73.86, -19.59 53.73 05/21/2025 12:37:44 73.83, -19.62 53.69 3.21 53
10 05/21/2025 13:27:34 -73.78, 147.93 126.38 05/21/2025 13:27:07 -73.75, 147.87 126.39 3.04 27
11 05/23/2025 22:58:34 -73.89, 4.93 126.71 05/23/2025 22:59:34 -73.88, 4.97 126.73 1.49 60
12 05/23/2025 23:49:17 73.78, 172.50 53.17 05/23/2025 23:48:53 73.78, 172.43 53.17 2.07 24



Historial Predications of SNOs between NPP and TERRA
